Location: Azul
(36.7830°S, 59.8500°W)
Time: 17:12:42
(UTC-03:00)

Hubble Space Telescope - Pass Details

Date: 06 December 2023
Orbit: 516 x 519 km, 28.5° (Epoch: 27 February)

Event Time Altitude Azimuth Distance (km) Brightness Sun altitude
Exits shadow 03:35:16 22° 28° (NNE) 1,201 2.3 -19.1°
Drops below altitude 10° 03:37:24 10° 55° (NE) 1,766 3.5 -18.8°
Sets 03:39:55 0° 68° (ENE) 2,654 4.6 -18.5°
